Coleman, TX

4:43 AM CDT on May 23, 2018 (GMT -0500)
Coleman Municipal

Weather History for KCOM - March, 2014

Change the Weather History Date:

Saturday, March 1, 2014

  Actual Average (WUND) Record (WUND)
Temperature  
Mean Temperature 66 °F -  
Max Temperature 88 °F - - (-1)
Min Temperature 45 °F - - (-1)
Cooling Degree Days 2    
Growing Degree Days 16 (Base 50)    
Moisture  
Dew Point 42 °F    
Average Humidity 39    
Maximum Humidity 69    
Minimum Humidity 17    
Precipitation  
Precipitation 0.00 in - - ()
Sea Level Pressure  
Sea Level Pressure 29.89 in    
Wind  
Wind Speed 5 mph (SSW)    
Max Wind Speed 21 mph    
Max Gust Speed 25 mph    
Visibility 10 miles    
Events      
Averages and records for this station are not official NWS values.
T = Trace of Precipitation, MM = Missing Value Source: NWS Daily Summary

Daily Weather History Graph

Daily Weather History Graph

Search for Another Location

Airport or City:

Astronomy

Mar. 01, 2014 Rise Set
Actual Time 7:04 AM CST 6:35 PM CST
Civil Twilight 6:40 AM CST 7:00 PM CST
Nautical Twilight 6:11 AM CST 7:28 PM CST
Astronomical Twilight 5:43 AM CST 7:56 PM CST
Moon 7:02 AM CST (3/1) 7:19 PM CST (3/1)
Length of Visible Light 12h 19m
Length of Day
11h 30m
New Moon, 0% of the Moon is Illuminated
Mar 1
New Moon
Mar 8
First Quarter
Mar 16
Full
Mar 23
Last Quarter
Mar 30
New

Hourly Weather History & Observations

Time (CST) Temp. Windchill Dew Point Humidity Pressure Visibility Wind Dir Wind Speed Gust Speed Precip Events Conditions
12:15 AM 57.9 °F - 27.7 °F 32% 29.86 in 10.0 mi West 4.6 mph - N/A   Clear
12:35 AM 60.8 °F - 31.1 °F 33% 29.87 in 10.0 mi Calm Calm - N/A   Clear
12:55 AM 61.3 °F - 32.0 °F 33% 29.87 in 10.0 mi WSW 4.6 mph - N/A   Clear
1:15 AM 63.7 °F - 33.8 °F 33% 29.87 in 10.0 mi West 5.8 mph - N/A   Clear
1:35 AM 59.9 °F - 33.4 °F 37% 29.87 in 10.0 mi West 5.8 mph - N/A   Clear
1:55 AM 59.2 °F - 33.3 °F 38% 29.87 in 10.0 mi Calm Calm - N/A   Clear
2:15 AM 59.2 °F - 34.5 °F 40% 29.87 in 10.0 mi Calm Calm - N/A   Clear
2:35 AM 58.5 °F - 35.6 °F 42% 29.87 in 10.0 mi Calm Calm - N/A   Clear
2:55 AM 60.4 °F - 36.7 °F 41% 29.87 in 10.0 mi SW 5.8 mph - N/A   Clear
3:15 AM 59.2 °F - 37.4 °F 44% 29.87 in 10.0 mi Calm Calm - N/A   Clear
3:35 AM 59.9 °F - 38.3 °F 45% 29.87 in 10.0 mi Calm Calm - N/A   Clear
3:55 AM 58.3 °F - 37.9 °F 47% 29.87 in 10.0 mi Calm Calm - N/A   Clear
4:15 AM 57.0 °F - 37.6 °F 48% 29.87 in 10.0 mi West 4.6 mph - N/A   Clear
4:35 AM 57.2 °F - 38.1 °F 49% 29.87 in 10.0 mi WSW 5.8 mph - N/A   Clear
4:55 AM 57.9 °F - 38.3 °F 48% 29.88 in 10.0 mi Calm Calm - N/A   Clear
5:15 AM 58.6 °F - 38.8 °F 48% 29.89 in 10.0 mi SW 4.6 mph - N/A   Clear
5:35 AM 58.6 °F - 39.2 °F 48% 29.89 in 10.0 mi Calm Calm - N/A   Clear
5:55 AM 53.2 °F - 37.6 °F 55% 29.90 in 10.0 mi Calm Calm - N/A   Clear
6:15 AM 50.9 °F - 36.9 °F 59% 29.90 in 10.0 mi Calm Calm - N/A   Clear
6:35 AM 47.1 °F - 36.3 °F 66% 29.91 in 10.0 mi ENE 4.6 mph - N/A   Clear
6:55 AM 45.5 °F 44.2 °F 35.4 °F 68% 29.92 in 10.0 mi ENE 3.5 mph - N/A   Clear
7:15 AM 46.4 °F - 35.1 °F 65% 29.93 in 10.0 mi Calm Calm - N/A   Clear
7:35 AM 47.7 °F - 35.6 °F 63% 29.94 in 10.0 mi Calm Calm - N/A   Clear
7:55 AM 49.6 °F - 37.2 °F 62% 29.95 in 10.0 mi Calm Calm - N/A   Clear
8:15 AM 52.3 °F - 39.2 °F 61% 29.95 in 10.0 mi Calm Calm - N/A   Clear
8:35 AM 56.8 °F - 41.2 °F 56% 29.96 in 10.0 mi Calm Calm - N/A   Clear
8:55 AM 60.3 °F - 41.5 °F 50% 29.96 in 10.0 mi Calm Calm - N/A   Clear
9:15 AM 63.3 °F - 43.3 °F 48% 29.96 in 10.0 mi Calm Calm - N/A   Clear
9:35 AM 66.6 °F - 43.7 °F 44% 29.96 in 10.0 mi Calm Calm - N/A   Clear
9:55 AM 68.4 °F - 43.7 °F 41% 29.96 in 10.0 mi South 3.5 mph - N/A   Clear
10:15 AM 70.3 °F - 43.0 °F 37% 29.97 in 10.0 mi Calm Calm - N/A   Clear
10:35 AM 72.0 °F - 43.5 °F 36% 29.96 in 10.0 mi Calm Calm - N/A   Clear
10:55 AM 74.5 °F - 41.7 °F 31% 29.96 in 10.0 mi Calm Calm - N/A   Clear
11:15 AM 76.1 °F - 41.5 °F 29% 29.96 in 10.0 mi SSE 3.5 mph - N/A   Clear
11:35 AM 78.6 °F - 41.7 °F 27% 29.95 in 10.0 mi South 5.8 mph - N/A   Clear
11:55 AM 79.3 °F - 41.7 °F 26% 29.95 in 10.0 mi SSE 6.9 mph - N/A   Clear
12:15 PM 80.6 °F - 41.5 °F 25% 29.94 in 10.0 mi SSW 6.9 mph - N/A   Clear
12:35 PM 81.9 °F - 41.5 °F 24% 29.93 in 10.0 mi South 8.1 mph - N/A   Clear
12:55 PM 84.4 °F - 43.0 °F 23% 29.91 in 10.0 mi South 8.1 mph - N/A   Clear
1:15 PM 87.1 °F - 39.6 °F 19% 29.89 in 10.0 mi South 12.7 mph 18.4 mph N/A   Clear
1:35 PM 88.2 °F - 38.8 °F 18% 29.88 in 10.0 mi South 10.4 mph 17.3 mph N/A   Clear
1:55 PM 87.8 °F - 39.2 °F 18% 29.86 in 10.0 mi South 12.7 mph 18.4 mph N/A   Clear
2:15 PM 86.9 °F - 38.8 °F 18% 29.85 in 10.0 mi South 13.8 mph - N/A   Clear
2:35 PM 86.2 °F - 41.0 °F 20% 29.84 in 10.0 mi South 20.7 mph 25.3 mph N/A   Clear
2:55 PM 86.0 °F - 41.5 °F 21% 29.84 in 10.0 mi South 16.1 mph 20.7 mph N/A   Clear
3:15 PM 86.2 °F - 40.8 °F 20% 29.83 in 10.0 mi South 16.1 mph 25.3 mph N/A   Clear
3:35 PM 86.7 °F - 40.6 °F 20% 29.82 in 10.0 mi SSW 15.0 mph 23.0 mph N/A   Clear
3:55 PM 88.2 °F - 40.3 °F 19% 29.81 in 10.0 mi South 15.0 mph 21.9 mph N/A   Clear
4:15 PM 87.8 °F - 37.0 °F 17% 29.81 in 10.0 mi SSW 17.3 mph 21.9 mph N/A   Clear
4:35 PM 87.3 °F - 36.5 °F 17% 29.80 in 10.0 mi SSW 13.8 mph 24.2 mph N/A   Clear
4:55 PM 85.1 °F - 41.5 °F 22% 29.80 in 10.0 mi West 5.8 mph - N/A   Clear
5:15 PM 83.3 °F - 41.0 °F 22% 29.82 in 10.0 mi WSW 8.1 mph - N/A   Clear
5:35 PM 84.7 °F - 37.9 °F 19% 29.82 in 10.0 mi SSW 12.7 mph 21.9 mph N/A   Clear
5:55 PM 83.5 °F - 39.4 °F 21% 29.82 in 10.0 mi SSW 8.1 mph - N/A   Clear
6:15 PM 82.6 °F - 39.7 °F 22% 29.83 in 10.0 mi SSW 6.9 mph - N/A   Clear
6:35 PM 81.5 °F - 40.1 °F 23% 29.84 in 10.0 mi SSW 5.8 mph - N/A   Clear
6:55 PM 78.1 °F - 40.1 °F 26% 29.84 in 10.0 mi South 6.9 mph - N/A   Clear
7:15 PM 77.5 °F - 40.3 °F 26% 29.84 in 10.0 mi South 8.1 mph - N/A   Clear
7:35 PM 77.0 °F - 43.3 °F 30% 29.85 in 10.0 mi South 9.2 mph - N/A   Clear
7:55 PM 76.8 °F - 44.8 °F 32% 29.85 in 10.0 mi SSE 9.2 mph - N/A   Clear
8:15 PM 74.5 °F - 49.3 °F 41% 29.87 in 10.0 mi South 12.7 mph - N/A   Clear
8:35 PM 74.7 °F - 54.0 °F 48% 29.89 in 10.0 mi South 12.7 mph 16.1 mph N/A   Clear
8:55 PM 74.3 °F - 54.3 °F 50% 29.89 in 10.0 mi South 10.4 mph 16.1 mph N/A   Clear
9:15 PM 73.6 °F - 54.5 °F 51% 29.90 in 10.0 mi SSW 10.4 mph - N/A   Clear
9:35 PM 72.5 °F - 54.5 °F 53% 29.91 in 10.0 mi SW 8.1 mph - N/A   Clear
9:55 PM 72.5 °F - 54.7 °F 53% 29.90 in 10.0 mi South 9.2 mph - N/A   Clear
10:15 PM 72.5 °F - 55.4 °F 55% 29.91 in 10.0 mi SSW 8.1 mph - N/A   Clear
10:35 PM 72.0 °F - 55.9 °F 57% 29.91 in 10.0 mi South 6.9 mph - N/A   Clear
10:55 PM 71.2 °F - 56.3 °F 59% 29.92 in 10.0 mi South 8.1 mph - N/A   Clear
11:15 PM 70.3 °F - 56.8 °F 62% 29.91 in 10.0 mi South 8.1 mph - N/A   Clear
11:35 PM 70.7 °F - 58.6 °F 66% 29.91 in 10.0 mi South 11.5 mph - N/A   Clear
11:55 PM 70.2 °F - 59.5 °F 69% 29.92 in 10.0 mi South 6.9 mph - N/A   Clear